Wind_Speed
26 26 26 26 26 27 28 27 28 29 29 30 30 32 33 33 34 34 35 36 36 36 37 37 37 37 38 38 39 40 40 41 41 41 41 42 42 42 43 43 44 43 43
25 26 26 26 26 27 27 28 29 29 30 31 33 33 34 34 36 36 37 37 37 37 37 37 38 39 39 40 40 41 41 41 42 42 41 42 43 43 44 44 45 45 45
25 25 26 26 27 28 29 29 29 30 31 33 34 35 35 36 36 37 37 37 38 39 39 39 39 40 40 41 41 42 42 42 42 43 43 43 43 43 44 46 46 46 46
26 26 26 27 28 29 29 30 30 31 32 33 34 35 35 36 37 38 38 38 39 40 41 41 41 42 42 42 42 42 43 43 43 43 44 44 44 44 43 45 46 47 48
27 27 27 27 28 28 29 30 31 32 32 33 34 35 36 36 37 38 39 40 40 41 41 42 42 43 43 43 43 43 43 43 42 43 43 44 44 45 45 45 46 48 49
26 27 27 27 27 28 29 30 31 33 33 34 35 36 36 37 38 39 40 40 41 41 42 42 42 43 43 43 42 43 44 44 43 43 43 43 44 45 46 46 46 47 49
27 27 27 27 28 29 30 31 32 33 34 35 36 37 37 38 38 39 40 40 41 42 42 42 42 42 42 42 42 42 43 43 44 44 44 44 44 45 46 46 46 47 48
27 27 28 29 30 31 32 33 33 34 35 36 36 37 38 38 39 40 40 40 41 42 42 42 43 43 42 42 42 42 43 43 44 44 45 45 45 45 46 46 47 47 47
27 29 30 31 31 32 33 34 35 35 36 37 37 38 39 40 40 40 41 41 41 42 42 42 42 41 41 41 42 42 43 43 43 43 44 44 44 45 45 46 46 47 47
28 29 31 32 33 34 35 35 36 37 37 37 38 39 39 40 40 41 41 41 41 42 42 41 41 41 41 41 41 42 43 43 43 43 44 44 44 45 45 46 46 47 47
29 30 31 32 33 34 35 36 37 38 38 39 39 40 41 41 41 42 42 42 42 41 40 40 40 40 41 42 42 42 42 43 43 43 44 44 44 45 45 46 47 48 47
29 30 32 33 35 36 37 38 39 39 40 40 40 41 41 41 42 42 42 42 42 41 40 40 40 40 41 42 42 42 42 43 43 43 43 44 44 44 45 46 48 47 47
30 31 32 33 34 36 37 38 38 39 39 40 41 41 41 41 42 43 43 42 42 42 42 41 41 41 41 41 41 42 41 42 43 43 43 43 43 44 45 46 46 46 47
30 31 32 33 34 35 36 37 38 38 39 39 40 41 41 42 42 42 42 43 43 43 42 42 41 41 41 41 41 40 41 41 41 42 42 43 44 44 44 44 45 45 46
31 31 32 34 35 36 37 37 38 38 39 40 41 41 42 42 42 42 42 42 42 42 41 41 41 41 40 40 40 40 40 40 41 41 42 42 42 42 42 43 43 44 44
32 33 33 34 35 36 37 37 38 39 40 41 42 42 42 42 41 41 41 41 40 39 39 39 39 38 38 38 38 39 38 38 39 39 40 39 40 41 41 42 42 43 43
34 34 34 35 35 36 37 38 39 39 40 40 41 42 42 41 41 40 39 38 38 38 38 37 37 36 36 36 37 37 38 37 37 38 38 38 39 39 40 40 40 41 42
35 35 35 36 36 37 37 37 38 39 39 40 40 41 41 40 39 38 37 37 37 37 37 37 36 36 35 35 36 36 36 36 36 36 36 36 36 37 37 38 39 40 40
35 35 36 36 36 37 37 37 38 38 38 38 39 39 38 37 36 35 35 35 35 35 35 35 34 34 34 34 34 34 34 34 34 34 34 34 35 35 36 37 37 38 39
35 35 36 36 36 36 36 36 36 37 37 37 36 35 35 34 33 33 34 34 34 34 34 33 33 33 33 33 33 33 33 32 32 33 33 33 33 34 35 36 36 37 38
36 36 36 36 35 35 35 36 36 36 36 35 35 35 34 33 34 34 34 33 33 33 32 32 32 32 32 32 32 32 32 32 32 32 32 33 33 34 35 36 37 37 37
36 37 36 36 36 36 36 36 35 35 35 34 34 35 34 33 33 33 33 32 32 31 31 31 31 31 31 31 31 32 32 32 32 32 32 32 33 34 35 36 36 36 37
37 37 37 37 36 36 36 35 35 35 34 34 34 33 33 32 32 32 31 31 31 31 30 30 30 30 30 30 31 31 31 31 32 32 32 33 33 34 34 34 34 34 35
38 38 37 37 36 35 35 35 35 35 34 33 33 32 32 32 32 32 32 31 31 30 30 29 29 29 29 30 30 31 32 31 31 32 32 32 32 32 33 33 33 33 33
39 39 38 37 36 35 35 35 35 34 33 32 31 30 30 31 31 31 30 30 29 29 28 29 29 29 29 29 29 30 30 31 31 31 31 31 31 32 32 31 31 32 32
38 38 37 36 35 35 34 34 34 33 32 31 30 30 30 29 29 29 29 29 29 28 28 29 28 28 28 28 29 29 30 30 31 31 31 31 31 31 31 31 31 32 32
Wind_Direction
241 243 243 245 249 252 254 255 256 256 256 258 261 263 265 266 267 269 269 270 270 270 270 269 270 270 270 268 267 267 267 266 266 266 265 264 263 261 261 260 260 261 261
243 245 245 247 250 253 255 256 257 256 259 261 263 265 267 267 269 270 272 271 271 271 270 270 271 272 272 270 268 267 267 267 267 266 266 265 264 262 261 261 261 261 260
244 246 247 250 252 255 256 257 258 260 262 263 265 267 268 270 270 270 271 271 271 271 272 272 272 273 273 272 269 266 267 266 266 265 266 266 265 264 262 261 261 260 259
246 249 251 253 254 256 257 258 260 263 264 266 268 269 270 270 270 270 271 271 272 273 273 274 275 276 275 273 271 269 268 267 266 266 266 266 266 265 263 262 260 260 259
249 252 254 254 255 256 258 260 262 264 265 267 268 270 271 272 271 272 272 272 273 274 274 274 275 276 276 274 272 270 269 268 267 267 267 267 266 266 265 263 261 260 259
252 254 255 256 256 258 260 262 265 267 268 270 271 272 273 274 274 274 274 274 274 275 275 275 275 276 276 274 272 270 268 267 267 267 267 267 267 267 267 265 263 261 260
253 255 255 257 259 261 263 265 267 268 270 272 273 274 275 276 276 276 276 277 277 277 276 276 276 276 276 275 273 270 269 267 267 267 268 267 268 267 267 265 264 262 261
255 256 257 259 261 262 264 266 268 270 272 273 274 275 276 276 277 277 278 278 278 279 279 278 276 276 275 274 273 271 269 268 267 268 268 267 267 268 267 266 264 263 261
258 259 260 261 263 264 266 268 270 271 272 274 275 276 276 277 277 278 279 280 280 279 280 279 278 276 274 273 272 271 269 268 268 268 267 267 267 268 267 266 265 263 262
261 261 262 264 265 267 269 270 271 272 273 274 276 277 277 278 278 278 279 280 281 281 281 280 278 277 275 274 273 272 270 269 268 268 268 267 267 268 267 266 265 264 263
264 264 266 266 267 268 269 271 272 274 275 276 276 277 278 279 279 279 279 279 281 282 281 279 278 277 276 275 274 273 271 269 269 269 268 268 268 269 267 266 265 264 263
269 269 269 269 269 270 271 272 273 275 276 276 277 278 278 278 278 278 279 280 280 280 280 279 279 277 276 276 275 274 272 269 268 268 268 269 269 269 268 267 265 264 263
273 272 272 272 272 273 273 274 275 276 276 276 277 277 277 278 278 278 279 280 280 279 279 278 278 277 276 276 275 274 272 270 269 268 268 268 268 269 269 267 266 264 263
275 274 274 274 275 275 276 276 277 277 277 277 278 278 278 279 280 280 279 279 279 279 278 277 277 276 276 276 275 275 272 270 269 268 269 269 269 269 269 267 265 264 264
277 277 277 277 277 277 277 278 278 277 278 279 280 280 280 280 280 280 280 280 279 279 277 276 275 275 275 275 275 274 273 272 271 270 271 271 270 269 269 267 266 265 264
279 279 279 279 278 278 278 278 279 279 280 280 281 281 281 280 281 281 280 280 279 277 276 275 275 276 275 275 275 274 273 273 272 272 271 271 271 269 269 268 266 264 264
280 280 279 279 279 278 279 279 279 280 280 281 281 281 281 281 281 281 280 279 278 277 276 276 275 276 275 275 276 275 274 274 274 274 273 273 272 271 270 269 266 265 265
279 279 279 280 280 280 280 280 281 280 281 282 282 282 282 281 280 279 279 279 278 277 277 276 275 276 276 276 276 275 275 276 276 275 274 274 273 273 271 269 268 267 266
279 279 280 280 281 281 280 280 281 281 282 283 283 282 281 280 279 278 278 278 278 278 278 277 276 275 276 276 276 276 275 276 276 276 276 275 274 273 273 271 269 268 267
279 279 280 281 281 281 281 281 282 282 283 284 283 282 281 279 278 279 279 279 279 278 278 276 275 275 276 275 276 276 276 276 277 277 277 276 275 274 274 273 271 270 269
280 280 281 282 282 281 282 283 283 284 283 282 283 282 280 279 279 279 279 279 278 278 277 277 276 276 276 276 277 277 277 277 277 277 277 276 276 275 276 275 273 271 270
281 281 282 282 282 282 282 283 284 283 282 282 282 281 280 280 280 279 279 279 278 278 277 277 277 277 276 276 276 277 278 278 278 279 279 278 277 277 278 277 275 272 271
282 281 281 282 282 281 282 281 282 283 282 281 281 280 279 280 280 280 278 278 278 278 277 277 277 277 276 275 275 277 278 279 279 280 280 280 280 280 280 279 277 274 273
281 281 282 282 281 280 281 281 281 282 282 281 280 278 278 280 280 278 277 277 278 276 276 277 278 278 277 276 277 278 278 279 280 280 280 282 282 283 282 279 277 276 275
281 282 282 282 280 279 279 280 281 281 282 281 279 278 278 279 279 278 277 277 277 275 276 278 280 280 279 278 278 280 279 279 280 280 282 283 284 283 281 279 278 277 276
282 281 281 281 280 279 279 280 280 281 280 280 279 278 279 279 279 278 277 276 276 275 275 277 279 279 279 279 280 281 281 280 281 282 283 285 285 284 281 279 279 278 276
Height
5752 5753 5755 5756 5758 5760 5761 5762 5763 5764 5765 5766 5766 5766 5766 5766 5767 5767 5766 5767 5767 5766 5766 5766 5766 5766 5766 5766 5766 5766 5766 5767 5767 5767 5768 5768 5769 5769 5770 5772 5773 5774 5775
5747 5748 5749 5751 5752 5753 5754 5755 5756 5757 5758 5759 5759 5759 5759 5759 5759 5759 5758 5758 5758 5758 5758 5757 5757 5757 5756 5756 5756 5756 5756 5756 5756 5756 5757 5758 5759 5759 5760 5761 5762 5764 5765
5741 5743 5744 5745 5746 5747 5748 5749 5750 5750 5751 5751 5751 5751 5751 5751 5750 5750 5750 5749 5749 5749 5749 5748 5748 5747 5747 5746 5746 5745 5745 5745 5745 5745 5746 5746 5747 5748 5749 5750 5751 5752 5754
5736 5737 5738 5739 5740 5741 5742 5743 5743 5743 5743 5743 5743 5743 5743 5742 5742 5741 5741 5740 5740 5739 5739 5738 5738 5737 5736 5735 5735 5735 5734 5734 5734 5734 5734 5735 5735 5736 5738 5739 5740 5741 5742
5730 5731 5732 5733 5734 5734 5735 5735 5736 5736 5736 5736 5735 5735 5734 5734 5733 5732 5732 5731 5730 5729 5728 5728 5727 5726 5725 5724 5724 5723 5723 5723 5723 5723 5723 5723 5723 5724 5725 5727 5728 5729 5730
5724 5725 5725 5726 5727 5727 5728 5728 5728 5728 5727 5727 5727 5726 5725 5725 5724 5723 5722 5721 5720 5719 5718 5717 5716 5715 5714 5713 5712 5712 5712 5712 5712 5712 5712 5712 5712 5713 5713 5715 5716 5717 5718
5717 5718 5719 5720 5720 5720 5720 5720 5720 5720 5719 5718 5718 5717 5716 5715 5714 5713 5712 5711 5710 5708 5707 5706 5705 5704 5703 5702 5701 5700 5700 5700 5700 5700 5700 5701 5701 5701 5701 5702 5704 5705 5706
5710 5711 5712 5712 5712 5712 5712 5712 5712 5711 5710 5709 5708 5707 5706 5705 5704 5703 5702 5700 5699 5698 5696 5695 5694 5692 5691 5690 5689 5689 5688 5688 5688 5688 5688 5689 5689 5689 5689 5690 5691 5692 5694
5703 5703 5704 5704 5704 5704 5703 5703 5703 5702 5701 5700 5698 5697 5696 5695 5693 5692 5691 5690 5688 5687 5685 5683 5682 5680 5679 5678 5678 5677 5677 5677 5676 5676 5676 5676 5677 5677 5677 5678 5678 5680 5682
5695 5695 5695 5695 5695 5695 5694 5694 5693 5692 5691 5689 5688 5687 5686 5684 5683 5681 5680 5678 5677 5675 5673 5671 5670 5669 5667 5667 5666 5666 5665 5665 5665 5664 5664 5664 5665 5665 5665 5665 5666 5667 5668
5687 5687 5687 5686 5686 5685 5685 5684 5683 5682 5680 5679 5678 5677 5675 5674 5672 5670 5669 5667 5666 5664 5662 5660 5658 5657 5656 5655 5654 5654 5653 5653 5652 5652 5652 5652 5652 5652 5652 5652 5653 5654 5654
5678 5678 5678 5677 5676 5675 5674 5673 5672 5671 5670 5668 5667 5666 5664 5662 5661 5659 5657 5656 5654 5652 5650 5649 5647 5646 5644 5643 5642 5642 5641 5640 5640 5640 5640 5640 5640 5640 5639 5639 5640 5640 5641
5669 5668 5668 5667 5666 5665 5664 5663 5661 5660 5658 5657 5656 5654 5652 5651 5649 5647 5646 5644 5642 5640 5638 5637 5635 5634 5632 5631 5630 5629 5628 5628 5628 5628 5628 5628 5627 5627 5626 5626 5626 5627 5628
5660 5659 5658 5657 5656 5654 5653 5652 5650 5649 5647 5646 5644 5642 5640 5639 5637 5635 5633 5631 5629 5627 5626 5624 5623 5622 5620 5619 5618 5617 5616 5616 5615 5615 5615 5615 5614 5614 5613 5613 5613 5614 5615
5651 5650 5649 5647 5646 5644 5643 5641 5639 5638 5636 5634 5632 5630 5628 5626 5624 5622 5621 5619 5617 5615 5613 5612 5611 5609 5608 5607 5606 5605 5604 5604 5603 5603 5602 5601 5601 5600 5600 5600 5600 5601 5602
5642 5640 5638 5637 5635 5633 5632 5630 5628 5626 5624 5622 5620 5618 5616 5614 5612 5610 5608 5606 5604 5603 5601 5600 5599 5598 5596 5595 5594 5594 5593 5592 5591 5590 5589 5589 5588 5588 5587 5587 5587 5588 5589
5632 5630 5628 5626 5625 5623 5621 5619 5617 5615 5613 5611 5609 5606 5604 5602 5600 5598 5596 5595 5593 5592 5590 5589 5588 5587 5585 5584 5583 5582 5581 5580 5579 5578 5577 5577 5576 5575 5574 5574 5574 5575 5575
5621 5619 5617 5615 5613 5611 5609 5607 5605 5603 5601 5599 5597 5594 5592 5590 5588 5587 5585 5584 5582 5581 5579 5578 5577 5576 5575 5574 5572 5571 5570 5569 5568 5567 5566 5565 5564 5563 5563 5562 5562 5562 5562
5610 5608 5606 5604 5602 5600 5598 5595 5593 5591 5589 5587 5585 5583 5581 5579 5577 5576 5574 5573 5572 5570 5569 5568 5566 5566 5564 5563 5562 5560 5559 5558 5557 5556 5554 5553 5553 5552 5551 5551 5550 5550 5550
5599 5597 5595 5593 5591 5589 5586 5584 5582 5580 5578 5576 5574 5571 5570 5568 5567 5566 5564 5563 5561 5560 5559 5558 5557 5556 5554 5553 5552 5550 5549 5548 5547 5545 5544 5542 5541 5540 5539 5539 5538 5538 5538
5588 5586 5584 5582 5580 5577 5575 5573 5571 5569 5567 5565 5563 5561 5559 5558 5557 5555 5554 5553 5552 5550 5549 5548 5547 5546 5544 5543 5542 5541 5539 5538 5537 5535 5534 5532 5531 5530 5528 5527 5527 5526 5526
5577 5575 5572 5571 5568 5566 5564 5562 5560 5558 5556 5554 5552 5551 5549 5548 5546 5545 5544 5543 5542 5541 5540 5538 5537 5536 5535 5533 5532 5531 5530 5528 5527 5525 5524 5522 5520 5519 5517 5516 5515 5514 5513
5565 5563 5561 5559 5557 5555 5553 5551 5549 5547 5545 5544 5542 5540 5539 5537 5536 5535 5534 5533 5532 5531 5530 5529 5528 5526 5525 5524 5522 5521 5520 5518 5517 5515 5514 5512 5510 5508 5506 5505 5503 5502 5501
5553 5551 5549 5547 5545 5543 5541 5539 5538 5536 5535 5533 5531 5530 5529 5528 5526 5525 5524 5523 5522 5521 5520 5519 5518 5517 5515 5514 5513 5512 5510 5509 5507 5505 5503 5501 5499 5498 5496 5494 5493 5491 5490
5541 5539 5537 5535 5533 5532 5530 5528 5527 5525 5524 5522 5521 5520 5519 5518 5516 5515 5514 5513 5512 5511 5511 5510 5509 5508 5506 5505 5503 5502 5501 5499 5497 5495 5494 5492 5490 5487 5485 5484 5482 5481 5480
5529 5527 5525 5523 5522 5520 5519 5517 5516 5515 5513 5512 5511 5510 5509 5508 5507 5505 5504 5503 5503 5502 5501 5500 5499 5498 5497 5495 5494 5493 5491 5489 5487 5486 5484 5482 5480 5477 5475 5474 5472 5471 5470